Year,Month,Day,Hour,Minute,Value (Times are PST for barometer in hPa)
2010,04,02,00,00,1005.55
2010,04,02,00,01,1005.51
2010,04,02,00,02,1005.42
2010,04,02,00,03,1005.39
2010,04,02,00,04,1005.42
2010,04,02,00,05,1005.43
2010,04,02,00,06,1005.49
2010,04,02,00,07,1005.42
2010,04,02,00,08,1005.42
2010,04,02,00,09,1005.42
2010,04,02,00,10,1005.39
2010,04,02,00,11,1005.39
2010,04,02,00,12,1005.34
2010,04,02,00,13,1005.21
2010,04,02,00,14,1005.15
2010,04,02,00,15,1005.15
2010,04,02,00,16,1005.11
2010,04,02,00,17,1005.11
2010,04,02,00,18,1005.11
2010,04,02,00,19,1005.14
2010,04,02,00,20,1005.04
2010,04,02,00,21,1004.91
2010,04,02,00,22,1004.91
2010,04,02,00,23,1004.95
2010,04,02,00,24,1004.98
2010,04,02,00,25,1004.98
2010,04,02,00,26,1005.01
2010,04,02,00,27,1005.05
2010,04,02,00,28,1005.05
2010,04,02,00,29,1005.07
2010,04,02,00,30,1004.97
2010,04,02,00,31,1004.91
2010,04,02,00,32,1004.90
2010,04,02,00,33,1004.84
2010,04,02,00,34,1004.81
2010,04,02,00,35,1004.81
2010,04,02,00,36,1004.76
2010,04,02,00,37,1004.60
2010,04,02,00,38,1004.54
2010,04,02,00,39,1004.53
2010,04,02,00,40,1004.47
2010,04,02,00,41,1004.47
2010,04,02,00,42,1004.44
2010,04,02,00,43,1004.40
2010,04,02,00,44,1004.39
2010,04,02,00,45,1004.27
2010,04,02,00,46,1004.27
2010,04,02,00,47,1004.22
2010,04,02,00,48,1004.17
2010,04,02,00,49,1004.10
2010,04,02,00,50,1004.09
2010,04,02,00,51,1004.03
2010,04,02,00,52,1004.03
2010,04,02,00,53,1004.02
2010,04,02,00,54,1003.91
2010,04,02,00,55,1003.95
2010,04,02,00,56,1003.89
2010,04,02,00,57,1003.79
2010,04,02,00,58,1003.77
2010,04,02,00,59,1003.83
2010,04,02,01,00,1003.79
2010,04,02,01,01,1003.76
2010,04,02,01,02,1003.69
2010,04,02,01,03,1003.72
2010,04,02,01,04,1003.65
2010,04,02,01,05,1003.58
2010,04,02,01,06,1003.52
2010,04,02,01,07,1003.54
2010,04,02,01,08,1003.39
2010,04,02,01,09,1003.42
2010,04,02,01,10,1003.40
2010,04,02,01,11,1003.46
2010,04,02,01,12,1003.42
2010,04,02,01,13,1003.42
2010,04,02,01,14,1003.41
2010,04,02,01,15,1003.35
2010,04,02,01,16,1003.35
2010,04,02,01,17,1003.38
2010,04,02,01,18,1003.32
2010,04,02,01,19,1003.35
2010,04,02,01,20,1003.35
2010,04,02,01,21,1003.31
2010,04,02,01,22,1003.22
2010,04,02,01,23,1003.19
2010,04,02,01,24,1003.31
2010,04,02,01,25,1003.22
2010,04,02,01,26,1003.22
2010,04,02,01,27,1003.22
2010,04,02,01,28,1003.24
2010,04,02,01,29,1003.16
2010,04,02,01,30,1003.24
2010,04,02,01,31,1003.18
2010,04,02,01,32,1003.18
2010,04,02,01,33,1003.15
2010,04,02,01,34,1003.12
2010,04,02,01,35,1003.12
2010,04,02,01,36,1003.13
2010,04,02,01,37,1003.17
2010,04,02,01,38,1003.12
2010,04,02,01,39,1003.12
2010,04,02,01,40,1003.12
2010,04,02,01,41,1003.18
2010,04,02,01,42,1003.18
2010,04,02,01,43,1003.12
2010,04,02,01,44,1003.08
2010,04,02,01,45,1003.11
2010,04,02,01,46,1003.01
2010,04,02,01,47,1003.04
2010,04,02,01,48,1002.98
2010,04,02,01,49,1002.98
2010,04,02,01,50,1003.01
2010,04,02,01,51,1003.05
2010,04,02,01,52,1003.01
2010,04,02,01,53,1003.01
2010,04,02,01,54,1003.05
2010,04,02,01,55,1002.99
2010,04,02,01,56,1003.07
2010,04,02,01,57,1002.98
2010,04,02,01,58,1003.01
2010,04,02,01,59,1002.97
2010,04,02,02,00,1002.91
2010,04,02,02,01,1002.95
2010,04,02,02,02,1002.95
2010,04,02,02,03,1002.95
2010,04,02,02,04,1002.91
2010,04,02,02,05,1002.88
2010,04,02,02,06,1002.87
2010,04,02,02,07,1002.80
2010,04,02,02,08,1002.74
2010,04,02,02,09,1002.74
2010,04,02,02,10,1002.73
2010,04,02,02,11,1002.68
2010,04,02,02,12,1002.68
2010,04,02,02,13,1002.68
2010,04,02,02,14,1002.69
2010,04,02,02,15,1002.54
2010,04,02,02,16,1002.54
2010,04,02,02,17,1002.50
2010,04,02,02,18,1002.44
2010,04,02,02,19,1002.44
2010,04,02,02,20,1002.40
2010,04,02,02,21,1002.34
2010,04,02,02,22,1002.34
2010,04,02,02,23,1002.29
2010,04,02,02,24,1002.23
2010,04,02,02,25,1002.18
2010,04,02,02,26,1002.22
2010,04,02,02,27,1002.07
2010,04,02,02,28,1002.07
2010,04,02,02,29,1002.03
2010,04,02,02,30,1002.02
2010,04,02,02,31,1001.97
2010,04,02,02,32,1001.90
2010,04,02,02,33,1001.85
2010,04,02,02,34,1001.80
2010,04,02,02,35,1001.80
2010,04,02,02,36,1001.83
2010,04,02,02,37,1001.76
2010,04,02,02,38,1001.80
2010,04,02,02,39,1001.79
2010,04,02,02,40,1001.72
2010,04,02,02,41,1001.63
2010,04,02,02,42,1001.63
2010,04,02,02,43,1001.62
2010,04,02,02,44,1001.52
2010,04,02,02,45,1001.51
2010,04,02,02,46,1001.39
2010,04,02,02,47,1001.42
2010,04,02,02,48,1001.37
2010,04,02,02,49,1001.51
2010,04,02,02,50,1001.45
2010,04,02,02,51,1001.36
2010,04,02,02,52,1001.32
2010,04,02,02,53,1001.36
2010,04,02,02,54,1001.36
2010,04,02,02,55,1001.38
2010,04,02,02,56,1001.32
2010,04,02,02,57,1001.29
2010,04,02,02,58,1001.26
2010,04,02,02,59,1001.32
2010,04,02,03,00,1001.30
2010,04,02,03,01,1001.39
2010,04,02,03,02,1001.32
2010,04,02,03,03,1001.32
2010,04,02,03,04,1001.29
2010,04,02,03,05,1001.28
2010,04,02,03,06,1001.19
2010,04,02,03,07,1001.19
2010,04,02,03,08,1001.14
2010,04,02,03,09,1001.03
2010,04,02,03,10,1001.08
2010,04,02,03,11,1001.05
2010,04,02,03,12,1001.02
2010,04,02,03,13,1000.98
2010,04,02,03,14,1000.95
2010,04,02,03,15,1000.91
2010,04,02,03,16,1000.85
2010,04,02,03,17,1000.85
2010,04,02,03,18,1000.81
2010,04,02,03,19,1000.81
2010,04,02,03,20,1000.78
2010,04,02,03,21,1000.78
2010,04,02,03,22,1000.78
2010,04,02,03,23,1000.75
2010,04,02,03,24,1000.71
2010,04,02,03,25,1000.69
2010,04,02,03,26,1000.75
2010,04,02,03,27,1000.78
2010,04,02,03,28,1000.78
2010,04,02,03,29,1000.85
2010,04,02,03,30,1000.78
2010,04,02,03,31,1000.80
2010,04,02,03,32,1000.68
2010,04,02,03,33,1000.71
2010,04,02,03,34,1000.68
2010,04,02,03,35,1000.64
2010,04,02,03,36,1000.64
2010,04,02,03,37,1000.71
2010,04,02,03,38,1000.68
2010,04,02,03,39,1000.64
2010,04,02,03,40,1000.64
2010,04,02,03,41,1000.60
2010,04,02,03,42,1000.54
2010,04,02,03,43,1000.51
2010,04,02,03,44,1000.47
2010,04,02,03,45,1000.37
2010,04,02,03,46,1000.34
2010,04,02,03,47,1000.37
2010,04,02,03,48,1000.31
2010,04,02,03,49,1000.27
2010,04,02,03,50,1000.24
2010,04,02,03,51,1000.24
2010,04,02,03,52,1000.26
2010,04,02,03,53,1000.17
2010,04,02,03,54,1000.20
2010,04,02,03,55,1000.15
2010,04,02,03,56,1000.24
2010,04,02,03,57,1000.20
2010,04,02,03,58,1000.17
2010,04,02,03,59,1000.14
2010,04,02,04,00,1000.14
2010,04,02,04,01,1000.17
2010,04,02,04,02,1000.14
2010,04,02,04,03,1000.16
2010,04,02,04,04,1000.03
2010,04,02,04,05,999.92
2010,04,02,04,06,999.88
2010,04,02,04,07,999.92
2010,04,02,04,08,999.80
2010,04,02,04,09,999.83
2010,04,02,04,10,999.83
2010,04,02,04,11,999.79
2010,04,02,04,12,999.70
2010,04,02,04,13,999.75
2010,04,02,04,14,999.66
2010,04,02,04,15,999.63
2010,04,02,04,16,999.59
2010,04,02,04,17,999.56
2010,04,02,04,18,999.53
2010,04,02,04,19,999.49
2010,04,02,04,20,999.46
2010,04,02,04,21,999.48
2010,04,02,04,22,999.43
2010,04,02,04,23,999.43
2010,04,02,04,24,999.43
2010,04,02,04,25,999.43
2010,04,02,04,26,999.39
2010,04,02,04,27,999.43
2010,04,02,04,28,999.42
2010,04,02,04,29,999.32
2010,04,02,04,30,999.29
2010,04,02,04,31,999.32
2010,04,02,04,32,999.26
2010,04,02,04,33,999.19
2010,04,02,04,34,999.19
2010,04,02,04,35,999.11
2010,04,02,04,36,998.99
2010,04,02,04,37,998.95
2010,04,02,04,38,998.92
2010,04,02,04,39,998.92
2010,04,02,04,40,998.88
2010,04,02,04,41,998.82
2010,04,02,04,42,998.82
2010,04,02,04,43,998.82
2010,04,02,04,44,998.75
2010,04,02,04,45,998.75
2010,04,02,04,46,998.75
2010,04,02,04,47,998.71
2010,04,02,04,48,998.65
2010,04,02,04,49,998.58
2010,04,02,04,50,998.61
2010,04,02,04,51,998.53
2010,04,02,04,52,998.45
2010,04,02,04,53,998.53
2010,04,02,04,54,998.41
2010,04,02,04,55,998.40
2010,04,02,04,56,998.27
2010,04,02,04,57,998.31
2010,04,02,04,58,998.24
2010,04,02,04,59,998.16
2010,04,02,05,00,998.07
2010,04,02,05,01,998.00
2010,04,02,05,02,997.97
2010,04,02,05,03,997.86
2010,04,02,05,04,997.77
2010,04,02,05,05,997.77
2010,04,02,05,06,997.73
2010,04,02,05,07,997.66
2010,04,02,05,08,997.72
2010,04,02,05,09,997.60
2010,04,02,05,10,997.60
2010,04,02,05,11,997.60
2010,04,02,05,12,997.56
2010,04,02,05,13,997.56
2010,04,02,05,14,997.53
2010,04,02,05,15,997.43
2010,04,02,05,16,997.39
2010,04,02,05,17,997.33
2010,04,02,05,18,997.25
2010,04,02,05,19,997.12
2010,04,02,05,20,997.12
2010,04,02,05,21,997.12
2010,04,02,05,22,997.05
2010,04,02,05,23,997.05
2010,04,02,05,24,997.11
2010,04,02,05,25,997.02
2010,04,02,05,26,997.04
2010,04,02,05,27,996.92
2010,04,02,05,28,996.92
2010,04,02,05,29,996.88
2010,04,02,05,30,996.72
2010,04,02,05,31,996.75
2010,04,02,05,32,996.75
2010,04,02,05,33,996.72
2010,04,02,05,34,996.72
2010,04,02,05,35,996.71
2010,04,02,05,36,996.62
2010,04,02,05,37,996.81
2010,04,02,05,38,996.65
2010,04,02,05,39,996.61
2010,04,02,05,40,996.67
2010,04,02,05,41,996.58
2010,04,02,05,42,996.55
2010,04,02,05,43,996.55
2010,04,02,05,44,996.48
2010,04,02,05,45,996.48
2010,04,02,05,46,996.48
2010,04,02,05,47,996.45
2010,04,02,05,48,996.41
2010,04,02,05,49,996.44
2010,04,02,05,50,996.31
2010,04,02,05,51,996.24
2010,04,02,05,52,996.17
2010,04,02,05,53,996.14
2010,04,02,05,54,996.04
2010,04,02,05,55,996.03
2010,04,02,05,56,995.90
2010,04,02,05,57,995.84
2010,04,02,05,58,995.84
2010,04,02,05,59,995.77
2010,04,02,06,00,995.73
2010,04,02,06,01,995.63
2010,04,02,06,02,995.55
2010,04,02,06,03,995.45
2010,04,02,06,04,995.33
2010,04,02,06,05,995.36
2010,04,02,06,06,995.28
2010,04,02,06,07,995.16
2010,04,02,06,08,995.12
2010,04,02,06,09,995.16
2010,04,02,06,10,995.05
2010,04,02,06,11,994.89
2010,04,02,06,12,994.85
2010,04,02,06,13,994.78
2010,04,02,06,14,994.68
2010,04,02,06,15,994.62
2010,04,02,06,16,994.58
2010,04,02,06,17,994.52
2010,04,02,06,18,994.41
2010,04,02,06,19,994.45
2010,04,02,06,20,994.35
2010,04,02,06,21,994.28
2010,04,02,06,22,994.24
2010,04,02,06,23,994.21
2010,04,02,06,24,994.21
2010,04,02,06,25,994.18
2010,04,02,06,26,994.14
2010,04,02,06,27,994.04
2010,04,02,06,28,994.10
2010,04,02,06,29,993.97
2010,04,02,06,30,993.97
2010,04,02,06,31,994.01
2010,04,02,06,32,993.97
2010,04,02,06,33,994.04
2010,04,02,06,34,994.07
2010,04,02,06,35,994.01
2010,04,02,06,36,993.91
2010,04,02,06,37,993.97
2010,04,02,06,38,993.91
2010,04,02,06,39,993.94
2010,04,02,06,40,993.94
2010,04,02,06,41,993.94
2010,04,02,06,42,993.87
2010,04,02,06,43,993.87
2010,04,02,06,44,993.80
2010,04,02,06,45,993.86
2010,04,02,06,46,993.77
2010,04,02,06,47,993.67
2010,04,02,06,48,993.62
2010,04,02,06,49,993.52
2010,04,02,06,50,993.39
2010,04,02,06,51,993.30
2010,04,02,06,52,993.29
2010,04,02,06,53,993.14
2010,04,02,06,54,993.22
2010,04,02,06,55,993.09
2010,04,02,06,56,993.02
2010,04,02,06,57,992.89
2010,04,02,06,58,992.86
2010,04,02,06,59,992.92
2010,04,02,07,00,992.86
2010,04,02,07,01,992.86
2010,04,02,07,02,992.56
2010,04,02,07,03,992.75
2010,04,02,07,04,992.69
2010,04,02,07,05,992.55
2010,04,02,07,06,992.52
2010,04,02,07,07,992.58
2010,04,02,07,08,992.45
2010,04,02,07,09,992.45
2010,04,02,07,10,992.37
2010,04,02,07,11,992.28
2010,04,02,07,12,992.24
2010,04,02,07,13,992.11
2010,04,02,07,14,992.04
2010,04,02,07,15,991.91
2010,04,02,07,16,991.90
2010,04,02,07,17,991.78
2010,04,02,07,18,991.87
2010,04,02,07,19,991.84
2010,04,02,07,20,991.81
2010,04,02,07,21,991.74
2010,04,02,07,22,991.75
2010,04,02,07,23,991.93
2010,04,02,07,24,991.69
2010,04,02,07,25,991.58
2010,04,02,07,26,991.69
2010,04,02,07,27,991.57
2010,04,02,07,28,991.50
2010,04,02,07,29,991.43
2010,04,02,07,30,991.37
2010,04,02,07,31,991.30
2010,04,02,07,32,991.37
2010,04,02,07,33,991.14
2010,04,02,07,34,991.25
2010,04,02,07,35,991.12
2010,04,02,07,36,990.96
2010,04,02,07,37,990.96
2010,04,02,07,38,990.93
2010,04,02,07,39,990.95
2010,04,02,07,40,990.79
2010,04,02,07,41,990.73
2010,04,02,07,42,990.88
2010,04,02,07,43,990.65
2010,04,02,07,44,990.64
2010,04,02,07,45,990.45
2010,04,02,07,46,990.55
2010,04,02,07,47,990.54
2010,04,02,07,48,990.42
2010,04,02,07,49,990.35
2010,04,02,07,50,990.38
2010,04,02,07,51,990.11
2010,04,02,07,52,990.04
2010,04,02,07,53,990.11
2010,04,02,07,54,990.04
2010,04,02,07,55,990.01
2010,04,02,07,56,989.91
2010,04,02,07,57,989.80
2010,04,02,07,58,989.71
2010,04,02,07,59,989.67
2010,04,02,08,00,989.60
2010,04,02,08,01,989.59
2010,04,02,08,02,989.47
2010,04,02,08,03,989.56
2010,04,02,08,04,989.47
2010,04,02,08,05,989.46
2010,04,02,08,06,989.33
2010,04,02,08,07,989.35
2010,04,02,08,08,989.00
2010,04,02,08,09,989.00
2010,04,02,08,10,989.10
2010,04,02,08,11,989.03
2010,04,02,08,12,989.00
2010,04,02,08,13,989.03
2010,04,02,08,14,988.96
2010,04,02,08,15,988.86
2010,04,02,08,16,988.79
2010,04,02,08,17,988.63
2010,04,02,08,18,988.83
2010,04,02,08,19,988.76
2010,04,02,08,20,988.68
2010,04,02,08,21,988.49
2010,04,02,08,22,988.54
2010,04,02,08,23,988.42
2010,04,02,08,24,988.42
2010,04,02,08,25,988.47
2010,04,02,08,26,988.22
2010,04,02,08,27,988.32
2010,04,02,08,28,988.29
2010,04,02,08,29,988.41
2010,04,02,08,30,988.16
2010,04,02,08,31,988.25
2010,04,02,08,32,988.25
2010,04,02,08,33,988.32
2010,04,02,08,34,988.28
2010,04,02,08,35,988.35
2010,04,02,08,36,988.12
2010,04,02,08,37,988.27
2010,04,02,08,38,988.11
2010,04,02,08,39,988.07
2010,04,02,08,40,987.92
2010,04,02,08,41,988.08
2010,04,02,08,42,988.09
2010,04,02,08,43,988.18
2010,04,02,08,44,988.11
2010,04,02,08,45,988.08
2010,04,02,08,46,988.05
2010,04,02,08,47,988.08
2010,04,02,08,48,988.15
2010,04,02,08,49,987.96
2010,04,02,08,50,988.18
2010,04,02,08,51,987.98
2010,04,02,08,52,987.98
2010,04,02,08,53,987.95
2010,04,02,08,54,987.91
2010,04,02,08,55,987.77
2010,04,02,08,56,987.55
2010,04,02,08,57,987.67
2010,04,02,08,58,987.71
2010,04,02,08,59,987.65
2010,04,02,09,00,987.81
2010,04,02,09,01,987.54
2010,04,02,09,02,987.57
2010,04,02,09,03,987.61
2010,04,02,09,04,987.64
2010,04,02,09,05,987.57
2010,04,02,09,06,987.55
2010,04,02,09,07,987.67
2010,04,02,09,08,987.70
2010,04,02,09,09,987.51
2010,04,02,09,10,987.53
2010,04,02,09,11,987.40
2010,04,02,09,12,987.37
2010,04,02,09,13,987.30
2010,04,02,09,14,987.44
2010,04,02,09,15,987.37
2010,04,02,09,16,987.30
2010,04,02,09,17,987.03
2010,04,02,09,18,987.06
2010,04,02,09,19,986.96
2010,04,02,09,20,986.93
2010,04,02,09,21,986.86
2010,04,02,09,22,986.86
2010,04,02,09,23,986.79
2010,04,02,09,24,986.86
2010,04,02,09,25,986.90
2010,04,02,09,26,986.86
2010,04,02,09,27,986.83
2010,04,02,09,28,986.76
2010,04,02,09,29,986.76
2010,04,02,09,30,986.66
2010,04,02,09,31,986.73
2010,04,02,09,32,986.59
2010,04,02,09,33,986.59
2010,04,02,09,34,986.55
2010,04,02,09,35,986.32
2010,04,02,09,36,986.24
2010,04,02,09,37,986.13
2010,04,02,09,38,986.32
2010,04,02,09,39,986.15
2010,04,02,09,40,986.08
2010,04,02,09,41,986.15
2010,04,02,09,42,986.08
2010,04,02,09,43,986.11
2010,04,02,09,44,985.91
2010,04,02,09,45,986.04
2010,04,02,09,46,985.88
2010,04,02,09,47,985.81
2010,04,02,09,48,985.98
2010,04,02,09,49,985.85
2010,04,02,09,50,985.78
2010,04,02,09,51,985.71
2010,04,02,09,52,985.74
2010,04,02,09,53,985.64
2010,04,02,09,54,985.68
2010,04,02,09,55,985.61
2010,04,02,09,56,985.53
2010,04,02,09,57,985.44
2010,04,02,09,58,985.47
2010,04,02,09,59,985.41
2010,04,02,10,00,985.44
2010,04,02,10,01,985.41
2010,04,02,10,02,985.44
2010,04,02,10,03,985.54
2010,04,02,10,04,985.54
2010,04,02,10,05,985.37
2010,04,02,10,06,985.37
2010,04,02,10,07,985.28
2010,04,02,10,08,985.44
2010,04,02,10,09,985.37
2010,04,02,10,10,985.37
2010,04,02,10,11,985.34
2010,04,02,10,12,985.30
2010,04,02,10,13,985.24
2010,04,02,10,14,985.21
2010,04,02,10,15,985.30
2010,04,02,10,16,985.24
2010,04,02,10,17,985.21
2010,04,02,10,18,985.30
2010,04,02,10,19,985.20
2010,04,02,10,20,985.20
2010,04,02,10,21,985.20
2010,04,02,10,22,985.23
2010,04,02,10,23,985.13
2010,04,02,10,24,985.20
2010,04,02,10,25,985.17
2010,04,02,10,26,985.13
2010,04,02,10,27,985.07
2010,04,02,10,28,985.10
2010,04,02,10,29,985.20
2010,04,02,10,30,985.20
2010,04,02,10,31,985.20
2010,04,02,10,32,985.17
2010,04,02,10,33,985.34
2010,04,02,10,34,985.24
2010,04,02,10,35,985.13
2010,04,02,10,36,985.27
2010,04,02,10,37,985.30
2010,04,02,10,38,985.21
2010,04,02,10,39,985.30
2010,04,02,10,40,985.37
2010,04,02,10,41,985.37
2010,04,02,10,42,985.34
2010,04,02,10,43,985.34
2010,04,02,10,44,985.24
2010,04,02,10,45,985.20
2010,04,02,10,46,985.27
2010,04,02,10,47,985.25
2010,04,02,10,48,985.37
2010,04,02,10,49,985.34
2010,04,02,10,50,985.30
2010,04,02,10,51,985.24
2010,04,02,10,52,985.30
2010,04,02,10,53,985.24
2010,04,02,10,54,985.34
2010,04,02,10,55,985.44
2010,04,02,10,56,985.30
2010,04,02,10,57,985.44
2010,04,02,10,58,985.41
2010,04,02,10,59,985.44
2010,04,02,11,00,985.44
2010,04,02,11,01,985.34
2010,04,02,11,02,985.37
2010,04,02,11,03,985.37
2010,04,02,11,04,985.41
2010,04,02,11,05,985.37
2010,04,02,11,06,985.37
2010,04,02,11,07,985.27
2010,04,02,11,08,985.25
2010,04,02,11,09,985.37
2010,04,02,11,10,985.17
2010,04,02,11,11,985.20
2010,04,02,11,12,985.17
2010,04,02,11,13,985.20
2010,04,02,11,14,985.20
2010,04,02,11,15,984.97
2010,04,02,11,16,985.00
2010,04,02,11,17,985.03
2010,04,02,11,18,985.07
2010,04,02,11,19,985.17
2010,04,02,11,20,985.07
2010,04,02,11,21,985.07
2010,04,02,11,22,985.00
2010,04,02,11,23,985.00
2010,04,02,11,24,985.13
2010,04,02,11,25,985.03
2010,04,02,11,26,985.00
2010,04,02,11,27,985.03
2010,04,02,11,28,984.97
2010,04,02,11,29,984.97
2010,04,02,11,30,984.93
2010,04,02,11,31,984.97
2010,04,02,11,32,984.80
2010,04,02,11,33,984.86
2010,04,02,11,34,984.97
2010,04,02,11,35,984.76
2010,04,02,11,36,984.99
2010,04,02,11,37,984.90
2010,04,02,11,38,984.83
2010,04,02,11,39,984.86
2010,04,02,11,40,984.93
2010,04,02,11,41,984.86
2010,04,02,11,42,984.92
2010,04,02,11,43,984.69
2010,04,02,11,44,984.63
2010,04,02,11,45,984.65
2010,04,02,11,46,984.53
2010,04,02,11,47,984.59
2010,04,02,11,48,984.36
2010,04,02,11,49,984.36
2010,04,02,11,50,984.33
2010,04,02,11,51,984.45
2010,04,02,11,52,984.29
2010,04,02,11,53,984.53
2010,04,02,11,54,984.46
2010,04,02,11,55,984.53
2010,04,02,11,56,984.59
2010,04,02,11,57,984.59
2010,04,02,11,58,984.57
2010,04,02,11,59,984.69
2010,04,02,12,00,984.63
2010,04,02,12,01,984.59
2010,04,02,12,02,984.58
2010,04,02,12,03,984.39
2010,04,02,12,04,984.56
2010,04,02,12,05,984.41
2010,04,02,12,06,984.29
2010,04,02,12,07,984.29
2010,04,02,12,08,984.42
2010,04,02,12,09,984.49
2010,04,02,12,10,984.56
2010,04,02,12,11,984.53
2010,04,02,12,12,984.49
2010,04,02,12,13,984.33
2010,04,02,12,14,984.41
2010,04,02,12,15,984.29
2010,04,02,12,16,984.15
2010,04,02,12,17,984.15
2010,04,02,12,18,984.02
2010,04,02,12,19,984.08
2010,04,02,12,20,983.92
2010,04,02,12,21,983.95
2010,04,02,12,22,984.02
2010,04,02,12,23,984.12
2010,04,02,12,24,983.92
2010,04,02,12,25,983.88
2010,04,02,12,26,983.88
2010,04,02,12,27,983.99
2010,04,02,12,28,984.12
2010,04,02,12,29,983.88
2010,04,02,12,30,983.81
2010,04,02,12,31,983.92
2010,04,02,12,32,984.05
2010,04,02,12,33,983.85
2010,04,02,12,34,984.05
2010,04,02,12,35,983.88
2010,04,02,12,36,983.98
2010,04,02,12,37,983.92
2010,04,02,12,38,983.76
2010,04,02,12,39,983.85
2010,04,02,12,40,983.93
2010,04,02,12,41,984.11
2010,04,02,12,42,983.92
2010,04,02,12,43,983.88
2010,04,02,12,44,983.92
2010,04,02,12,45,983.80
2010,04,02,12,46,983.71
2010,04,02,12,47,983.61
2010,04,02,12,48,983.68
2010,04,02,12,49,983.65
2010,04,02,12,50,983.78
2010,04,02,12,51,983.68
2010,04,02,12,52,983.78
2010,04,02,12,53,983.71
2010,04,02,12,54,983.68
2010,04,02,12,55,983.75
2010,04,02,12,56,983.68
2010,04,02,12,57,983.78
2010,04,02,12,58,983.71
2010,04,02,12,59,983.71
2010,04,02,13,00,983.68
2010,04,02,13,01,983.78
2010,04,02,13,02,983.68
2010,04,02,13,03,983.61
2010,04,02,13,04,983.64
2010,04,02,13,05,983.61
2010,04,02,13,06,983.51
2010,04,02,13,07,983.58
2010,04,02,13,08,983.58
2010,04,02,13,09,983.61
2010,04,02,13,10,983.68
2010,04,02,13,11,983.58
2010,04,02,13,12,983.44
2010,04,02,13,13,983.54
2010,04,02,13,14,983.48
2010,04,02,13,15,983.44
2010,04,02,13,16,983.48
2010,04,02,13,17,983.48
2010,04,02,13,18,983.45
2010,04,02,13,19,983.54
2010,04,02,13,20,983.44
2010,04,02,13,21,983.48
2010,04,02,13,22,983.48
2010,04,02,13,23,983.25
2010,04,02,13,24,983.41
2010,04,02,13,25,983.31
2010,04,02,13,26,983.34
2010,04,02,13,27,983.41
2010,04,02,13,28,983.34
2010,04,02,13,29,983.34
2010,04,02,13,30,983.37
2010,04,02,13,31,983.24
2010,04,02,13,32,983.20
2010,04,02,13,33,983.10
2010,04,02,13,34,983.20
2010,04,02,13,35,983.17
2010,04,02,13,36,983.20
2010,04,02,13,37,983.10
2010,04,02,13,38,983.10
2010,04,02,13,39,983.10
2010,04,02,13,40,982.91
2010,04,02,13,41,983.04
2010,04,02,13,42,982.96
2010,04,02,13,43,982.83
2010,04,02,13,44,982.93
2010,04,02,13,45,982.97
2010,04,02,13,46,983.00
2010,04,02,13,47,982.93
2010,04,02,13,48,983.00
2010,04,02,13,49,982.97
2010,04,02,13,50,982.87
2010,04,02,13,51,982.90
2010,04,02,13,52,982.87
2010,04,02,13,53,982.87
2010,04,02,13,54,982.87
2010,04,02,13,55,982.83
2010,04,02,13,56,982.73
2010,04,02,13,57,982.76
2010,04,02,13,58,982.80
2010,04,02,13,59,982.90
2010,04,02,14,00,982.73
2010,04,02,14,01,982.66
2010,04,02,14,02,982.87
2010,04,02,14,03,982.76
2010,04,02,14,04,982.66
2010,04,02,14,05,982.59
2010,04,02,14,06,982.72
2010,04,02,14,07,982.56
2010,04,02,14,08,982.53
2010,04,02,14,09,982.53
2010,04,02,14,10,982.53
2010,04,02,14,11,982.46
2010,04,02,14,12,982.53
2010,04,02,14,13,982.49
2010,04,02,14,14,982.46
2010,04,02,14,15,982.63
2010,04,02,14,19,982.29
2010,04,02,14,20,982.43
2010,04,02,14,21,982.46
2010,04,02,14,22,982.46
2010,04,02,14,23,982.36
2010,04,02,14,24,982.49
2010,04,02,14,25,982.46
2010,04,02,14,26,982.40
2010,04,02,14,27,982.49
2010,04,02,14,28,982.49
2010,04,02,14,29,982.46
2010,04,02,14,30,982.36
2010,04,02,14,31,982.53
2010,04,02,14,32,982.63
2010,04,02,14,33,982.32
2010,04,02,14,34,982.29
2010,04,02,14,35,982.46
2010,04,02,14,36,982.39
2010,04,02,14,37,982.29
2010,04,02,14,38,982.36
2010,04,02,14,39,982.43
2010,04,02,14,40,982.36
2010,04,02,14,41,982.36
2010,04,02,14,42,982.27
2010,04,02,14,43,982.39
2010,04,02,14,44,982.32
2010,04,02,14,45,982.26
2010,04,02,14,46,982.32
2010,04,02,14,47,982.29
2010,04,02,14,48,982.16
2010,04,02,14,49,982.29
2010,04,02,14,50,982.26
2010,04,02,14,51,982.35
2010,04,02,14,52,982.15
2010,04,02,14,53,982.12
2010,04,02,14,54,982.09
2010,04,02,14,55,982.09
2010,04,02,14,56,981.99
2010,04,02,14,57,982.19
2010,04,02,14,58,982.30
2010,04,02,14,59,982.02
2010,04,02,15,00,982.25
2010,04,02,15,01,982.05
2010,04,02,15,02,982.09
2010,04,02,15,03,982.09
2010,04,02,15,04,982.12
2010,04,02,15,05,982.05
2010,04,02,15,06,982.09
2010,04,02,15,07,982.12
2010,04,02,15,08,982.09
2010,04,02,15,09,982.09
2010,04,02,15,10,982.09
2010,04,02,15,11,982.12
2010,04,02,15,12,982.19
2010,04,02,15,13,982.22
2010,04,02,15,14,982.26
2010,04,02,15,15,982.19
2010,04,02,15,16,982.21
2010,04,02,15,17,982.05
2010,04,02,15,18,982.05
2010,04,02,15,19,982.15
2010,04,02,15,20,982.15
2010,04,02,15,21,982.02
2010,04,02,15,22,982.09
2010,04,02,15,23,982.12
2010,04,02,15,24,982.15
2010,04,02,15,25,982.12
2010,04,02,15,26,982.19
2010,04,02,15,27,982.19
2010,04,02,15,28,982.19
2010,04,02,15,29,982.29
2010,04,02,15,30,982.36
2010,04,02,15,31,982.39
2010,04,02,15,32,982.22
2010,04,02,15,33,982.39
2010,04,02,15,34,982.15
2010,04,02,15,35,982.22
2010,04,02,15,36,982.29
2010,04,02,15,37,982.32
2010,04,02,15,38,982.39
2010,04,02,15,39,982.29
2010,04,02,15,40,982.26
2010,04,02,15,41,982.29
2010,04,02,15,42,982.39
2010,04,02,15,43,982.29
2010,04,02,15,44,982.09
2010,04,02,15,45,982.15
2010,04,02,15,46,982.26
2010,04,02,15,47,982.39
2010,04,02,15,48,982.29
2010,04,02,15,49,982.22
2010,04,02,15,50,982.29
2010,04,02,15,51,982.29
2010,04,02,15,52,982.29
2010,04,02,15,53,982.22
2010,04,02,15,54,982.22
2010,04,02,15,55,982.29
2010,04,02,15,56,982.15
2010,04,02,15,57,982.15
2010,04,02,15,58,982.19
2010,04,02,15,59,982.09
2010,04,02,16,00,982.12
2010,04,02,16,01,982.02
2010,04,02,16,02,982.02
2010,04,02,16,03,982.12
2010,04,02,16,04,982.09
2010,04,02,16,05,982.02
2010,04,02,16,06,981.88
2010,04,02,16,07,981.88
2010,04,02,16,08,981.88
2010,04,02,16,09,981.84
2010,04,02,16,10,981.68
2010,04,02,16,11,981.82
2010,04,02,16,12,981.78
2010,04,02,16,13,981.82
2010,04,02,16,14,981.82
2010,04,02,16,15,981.65
2010,04,02,16,16,981.55
2010,04,02,16,17,981.65
2010,04,02,16,18,981.55
2010,04,02,16,19,981.58
2010,04,02,16,20,981.48
2010,04,02,16,21,981.38
2010,04,02,16,22,981.38
2010,04,02,16,23,981.38
2010,04,02,16,24,981.34
2010,04,02,16,25,981.38
2010,04,02,16,26,981.38
2010,04,02,16,27,981.31
2010,04,02,16,28,981.41